Blattenbach Aussen Messungen

Zurück zum Überblick

Zeitpunkt Temperatur Temperatur Kabelsensor Luftfeuchte
15.07.2019 23:54:08 16,9 C 24,0 C 73,0%
15.07.2019 23:47:08 16,9 C 24,0 C 72,0%
15.07.2019 23:40:07 16,9 C 24,0 C 73,0%
15.07.2019 23:33:05 16,9 C 24,0 C 73,0%
15.07.2019 23:26:08 17,0 C 24,0 C 72,0%
15.07.2019 23:19:06 16,9 C 24,1 C 72,0%
15.07.2019 23:12:08 16,9 C 24,1 C 73,0%
15.07.2019 23:05:05 16,9 C 24,1 C 73,0%
15.07.2019 22:58:07 16,9 C 24,1 C 73,0%
15.07.2019 22:51:07 16,8 C 24,1 C 73,0%
15.07.2019 22:44:05 16,7 C 24,1 C 74,0%
15.07.2019 22:37:06 16,8 C 24,1 C 73,0%
15.07.2019 22:30:08 16,7 C 24,2 C 73,0%
15.07.2019 22:23:06 16,7 C 24,2 C 73,0%
15.07.2019 22:16:07 16,7 C 24,2 C 73,0%
15.07.2019 22:09:09 16,7 C 24,3 C 75,0%
15.07.2019 22:02:09 16,8 C 24,3 C 75,0%
15.07.2019 21:55:06 16,8 C 24,3 C 74,0%
15.07.2019 21:48:06 16,8 C 24,3 C 75,0%
15.07.2019 21:41:08 16,9 C 24,3 C 74,0%
15.07.2019 21:34:05 17,0 C 24,3 C 74,0%
15.07.2019 21:27:09 17,0 C 24,4 C 73,0%
15.07.2019 21:20:06 17,1 C 24,4 C 72,0%
15.07.2019 21:13:08 17,2 C 24,4 C 72,0%
15.07.2019 21:06:07 17,4 C 24,4 C 72,0%
15.07.2019 20:59:05 17,7 C 24,4 C 72,0%
15.07.2019 20:52:07 18,0 C 24,4 C 72,0%
15.07.2019 20:45:07 18,3 C 24,5 C 72,0%
15.07.2019 20:38:06 18,6 C 24,5 C 71,0%
15.07.2019 20:31:05 18,9 C 24,5 C 71,0%
15.07.2019 20:24:06 19,4 C 24,5 C 70,0%
15.07.2019 20:17:07 19,7 C 24,5 C 69,0%
15.07.2019 20:10:08 20,3 C 24,6 C 67,0%
15.07.2019 20:03:04 21,2 C 24,6 C 65,0%
15.07.2019 19:56:09 21,9 C 24,6 C 62,0%
15.07.2019 19:49:06 22,6 C 24,6 C 61,0%
15.07.2019 19:42:05 23,0 C 24,6 C 61,0%
15.07.2019 19:35:07 23,2 C 24,6 C 61,0%
15.07.2019 19:28:08 23,1 C 24,6 C 61,0%
15.07.2019 19:21:04 22,8 C 24,5 C 62,0%
15.07.2019 19:14:06 22,4 C 24,5 C 63,0%
15.07.2019 19:07:08 21,6 C 24,5 C 65,0%
15.07.2019 19:00:05 21,5 C 24,4 C 64,0%
15.07.2019 18:53:05 21,9 C 24,4 C 62,0%
15.07.2019 18:46:09 22,3 C 24,4 C 60,0%
15.07.2019 18:39:08 21,9 C 24,4 C 61,0%
15.07.2019 18:32:05 21,7 C 24,4 C 61,0%
15.07.2019 18:25:07 21,9 C 24,3 C 61,0%
15.07.2019 18:18:08 22,0 C 24,3 C 62,0%
15.07.2019 18:11:07 22,0 C 24,3 C 62,0%
15.07.2019 18:04:08 22,7 C 24,3 C 60,0%
15.07.2019 17:56:49 23,3 C 24,3 C 58,0%
15.07.2019 17:49:53 24,2 C 24,3 C 60,0%
15.07.2019 17:42:51 24,0 C 24,3 C 61,0%
15.07.2019 17:35:53 23,6 C 24,2 C 61,0%
15.07.2019 17:28:52 23,0 C 24,1 C 63,0%
15.07.2019 17:21:53 22,4 C 24,0 C 63,0%
15.07.2019 17:14:49 22,3 C 24,0 C 63,0%
15.07.2019 17:07:49 22,6 C 24,0 C 62,0%
15.07.2019 17:00:53 23,5 C 24,0 C 62,0%
15.07.2019 16:53:52 23,2 C 23,9 C 63,0%
15.07.2019 16:46:53 22,4 C 23,8 C 64,0%
15.07.2019 16:39:54 21,9 C 23,8 C 64,0%
15.07.2019 16:32:53 22,5 C 23,7 C 63,0%
15.07.2019 16:25:53 22,2 C 23,6 C 64,0%
15.07.2019 16:18:50 21,3 C 23,6 C 64,0%
15.07.2019 16:11:50 21,5 C 23,5 C 64,0%
15.07.2019 16:04:51 21,5 C 23,5 C 62,0%
15.07.2019 15:57:50 21,8 C 23,5 C 62,0%
15.07.2019 15:50:50 22,4 C 23,6 C 62,0%
15.07.2019 15:43:53 22,5 C 23,5 C 61,0%
15.07.2019 15:36:53 22,1 C 23,5 C 62,0%
15.07.2019 15:29:52 22,2 C 23,4 C 62,0%
15.07.2019 15:22:50 22,1 C 23,3 C 63,0%
15.07.2019 15:15:53 22,0 C 23,3 C 63,0%
15.07.2019 15:08:49 22,0 C 23,2 C 63,0%
15.07.2019 15:01:53 22,5 C 23,1 C 63,0%
15.07.2019 14:54:50 22,0 C 23,0 C 64,0%
15.07.2019 14:47:52 21,8 C 22,9 C 66,0%
15.07.2019 14:40:54 20,7 C 22,8 C 67,0%
15.07.2019 14:33:53 20,3 C 22,8 C 67,0%
15.07.2019 14:26:51 19,9 C 22,8 C 68,0%
15.07.2019 14:19:53 19,9 C 22,8 C 69,0%
15.07.2019 14:12:50 19,8 C 22,7 C 68,0%
15.07.2019 14:05:51 19,9 C 22,7 C 67,0%
15.07.2019 13:58:52 19,9 C 22,7 C 67,0%
15.07.2019 13:51:53 20,1 C 22,7 C 67,0%
15.07.2019 13:50:09 20,2 C 22,6 C 68,0%
15.07.2019 13:37:52 19,8 C 22,6 C 69,0%
15.07.2019 13:30:50 19,4 C 22,6 C 69,0%
15.07.2019 13:23:50 19,5 C 22,6 C 69,0%
15.07.2019 13:16:54 19,8 C 22,6 C 68,0%
15.07.2019 13:09:53 20,2 C 22,6 C 68,0%
15.07.2019 13:02:52 20,3 C 22,6 C 70,0%
15.07.2019 12:55:51 20,4 C 22,5 C 69,0%
15.07.2019 12:48:50 20,4 C 22,5 C 69,0%
15.07.2019 12:41:52 20,2 C 22,5 C 70,0%
15.07.2019 12:34:53 19,7 C 22,4 C 71,0%
15.07.2019 12:27:52 19,6 C 22,4 C 71,0%
15.07.2019 12:20:51 19,6 C 22,4 C 71,0%
15.07.2019 12:13:53 19,7 C 22,4 C 71,0%
15.07.2019 12:06:52 19,7 C 22,4 C 70,0%
15.07.2019 11:59:51 19,8 C 22,4 C 68,0%
15.07.2019 11:52:51 19,7 C 22,4 C 68,0%
15.07.2019 11:45:53 19,7 C 22,4 C 69,0%
15.07.2019 11:38:50 19,4 C 22,3 C 69,0%
15.07.2019 11:31:54 19,7 C 22,3 C 70,0%
15.07.2019 11:24:50 19,6 C 22,2 C 71,0%
15.07.2019 11:17:49 19,4 C 22,1 C 71,0%
15.07.2019 11:10:51 18,9 C 22,2 C 72,0%
15.07.2019 11:03:50 18,8 C 22,3 C 73,0%
15.07.2019 10:56:50 18,4 C 22,3 C 73,0%
15.07.2019 10:49:50 18,4 C 22,3 C 74,0%
15.07.2019 10:42:51 18,3 C 22,3 C 74,0%
15.07.2019 10:35:51 17,9 C 22,2 C 76,0%
15.07.2019 10:28:51 17,3 C 22,2 C 76,0%
15.07.2019 10:21:53 17,0 C 22,2 C 77,0%
15.07.2019 10:14:52 16,9 C 22,3 C 78,0%
15.07.2019 10:07:50 16,6 C 22,2 C 79,0%
15.07.2019 10:00:51 16,4 C 22,2 C 81,0%
15.07.2019 09:53:48 16,5 C 22,3 C 80,0%
15.07.2019 09:46:53 16,5 C 22,3 C 80,0%
15.07.2019 09:39:50 16,5 C 22,3 C 80,0%
15.07.2019 09:32:50 16,6 C 22,3 C 80,0%
15.07.2019 09:25:53 16,5 C 22,3 C 81,0%
15.07.2019 09:18:51 16,2 C 22,3 C 82,0%
15.07.2019 09:11:49 16,0 C 22,3 C 81,0%
15.07.2019 09:04:52 16,0 C 22,3 C 81,0%
15.07.2019 08:57:50 16,0 C 22,3 C 81,0%
15.07.2019 08:50:50 15,8 C 22,3 C 82,0%
15.07.2019 08:43:52 15,7 C 22,3 C 82,0%
15.07.2019 08:36:49 15,6 C 22,3 C 83,0%
15.07.2019 08:29:53 15,5 C 22,3 C 83,0%
15.07.2019 08:22:52 15,5 C 22,3 C 84,0%
15.07.2019 08:15:52 15,3 C 22,3 C 84,0%
15.07.2019 08:08:51 15,1 C 22,4 C 84,0%
15.07.2019 08:01:53 14,9 C 22,4 C 84,0%
15.07.2019 07:54:51 14,9 C 22,4 C 84,0%
15.07.2019 07:47:51 14,8 C 22,4 C 84,0%
15.07.2019 07:40:52 14,8 C 22,4 C 84,0%
15.07.2019 07:33:50 14,6 C 22,4 C 84,0%
15.07.2019 07:26:49 14,4 C 22,5 C 84,0%
15.07.2019 07:19:51 14,4 C 22,5 C 84,0%
15.07.2019 07:12:53 14,3 C 22,5 C 85,0%
15.07.2019 07:05:50 14,2 C 22,5 C 85,0%
15.07.2019 06:58:50 14,1 C 22,5 C 85,0%
15.07.2019 06:51:52 14,1 C 22,5 C 85,0%
15.07.2019 06:44:50 14,0 C 22,6 C 84,0%
15.07.2019 06:37:49 14,1 C 22,6 C 85,0%
15.07.2019 06:30:53 14,0 C 22,6 C 85,0%
15.07.2019 06:23:34 13,9 C 22,6 C 85,0%
15.07.2019 06:16:37 13,9 C 22,6 C 85,0%
15.07.2019 06:09:37 14,0 C 22,7 C 85,0%
15.07.2019 06:02:37 14,1 C 22,7 C 85,0%
15.07.2019 05:55:37 14,0 C 22,7 C 85,0%
15.07.2019 05:48:38 14,0 C 22,7 C 85,0%
15.07.2019 05:41:38 14,0 C 22,8 C 85,0%
15.07.2019 05:34:36 13,9 C 22,8 C 85,0%
15.07.2019 05:27:37 13,9 C 22,8 C 85,0%
15.07.2019 05:20:37 13,9 C 22,8 C 85,0%
15.07.2019 05:13:39 14,1 C 22,9 C 85,0%
15.07.2019 05:06:36 14,3 C 22,9 C 85,0%
15.07.2019 04:59:37 14,4 C 22,9 C 85,0%
15.07.2019 04:52:37 14,4 C 22,9 C 86,0%
15.07.2019 04:45:37 14,4 C 23,0 C 85,0%
15.07.2019 04:38:37 14,3 C 23,0 C 86,0%
15.07.2019 04:31:36 14,3 C 23,0 C 85,0%
15.07.2019 04:24:34 14,2 C 23,0 C 85,0%
15.07.2019 04:17:36 14,1 C 23,1 C 85,0%
15.07.2019 04:10:35 14,2 C 23,1 C 85,0%
15.07.2019 04:03:35 14,1 C 23,1 C 85,0%
15.07.2019 03:56:35 14,2 C 23,1 C 84,0%
15.07.2019 03:49:36 14,2 C 23,1 C 84,0%
15.07.2019 03:42:35 14,2 C 23,2 C 84,0%
15.07.2019 03:35:36 14,3 C 23,2 C 85,0%
15.07.2019 03:28:35 14,3 C 23,2 C 85,0%
15.07.2019 03:21:35 14,3 C 23,2 C 85,0%
15.07.2019 03:14:36 14,2 C 23,2 C 85,0%
15.07.2019 03:07:39 14,0 C 23,3 C 84,0%
15.07.2019 03:00:38 14,0 C 23,3 C 84,0%
15.07.2019 02:53:35 14,0 C 23,3 C 84,0%
15.07.2019 02:46:38 14,1 C 23,3 C 84,0%
15.07.2019 02:39:35 14,2 C 23,4 C 84,0%
15.07.2019 02:32:34 14,3 C 23,4 C 84,0%
15.07.2019 02:25:36 14,2 C 23,4 C 85,0%
15.07.2019 02:18:38 14,1 C 23,5 C 84,0%
15.07.2019 02:11:37 14,2 C 23,5 C 84,0%
15.07.2019 02:04:35 14,3 C 23,5 C 83,0%
15.07.2019 01:57:38 14,4 C 23,6 C 84,0%
15.07.2019 01:50:37 14,4 C 23,6 C 84,0%
15.07.2019 01:43:38 14,2 C 23,6 C 83,0%
15.07.2019 01:36:38 14,3 C 23,6 C 83,0%
15.07.2019 01:29:37 14,3 C 23,6 C 83,0%
15.07.2019 01:22:34 14,1 C 23,7 C 83,0%
15.07.2019 01:15:38 14,1 C 23,7 C 83,0%
15.07.2019 01:08:34 14,2 C 23,7 C 83,0%
15.07.2019 01:01:38 14,0 C 23,7 C 83,0%
15.07.2019 00:54:37 14,1 C 23,8 C 83,0%
15.07.2019 00:47:37 14,2 C 23,8 C 83,0%
15.07.2019 00:40:39 14,1 C 23,8 C 83,0%
15.07.2019 00:33:39 14,1 C 23,9 C 82,0%
15.07.2019 00:26:36 14,4 C 23,9 C 81,0%
15.07.2019 00:19:36 14,5 C 23,9 C 81,0%
15.07.2019 00:12:37 14,6 C 24,0 C 81,0%
15.07.2019 00:05:35 14,6 C 24,1 C 80,0%